View from above orbital plane
|
View from above satellite
|
Ground track
|
The orbit data is extracted from the following two-line orbital elements,
1 27601U 02056E 21021.83439199 -.00000100 00000-0 -21230-4 0 9996
2 27601 98.2042 52.1018 0071826 347.9291 185.0361 14.31993702945943
Epoch (UTC): | 21 January 2021 20:01:31 |
Eccentricity: | 0.0071826 |
inclination: | 98.2042° |
perigee height: | 733 km |
apogee height: | 836 km |
right ascension of ascending node: | 52.1018° |
argument of perigee: | 347.9291° |
revolutions per day: | 14.31993702 |
mean anomaly at epoch: | 185.0361° |
orbit number at epoch: | 94594 |
The dashed part of the orbit path shows where the satellite is in the earth's shadow,
|
|